Location: Hopville
(44.8032°N, 123.1329°W)
Time: 04:49:40
(UTC+00:00)

Cosmos 2228 - Pass Details

Date: 24 January 2021
Orbit: 589 x 617 km, 82.5° (Epoch: 26 February)

Event Time Altitude Azimuth Distance (km) Brightness Sun altitude
Rises 14:14:22 0° 181° (S) 2,819 6.6 -15.1°
Reaches altitude 10° 14:16:34 10° 179° (S) 1,919 5.7 -14.7°
Maximum altitude 14:20:47 71° 96° (E) 630 3.3 -14.0°
Drops below altitude 10° 14:25:01 10° 13° (NNE) 1,928 5.6 -13.2°
Sets 14:27:14 0° 11° (N) 2,834 6.4 -12.9°
